When you browse on this site, cookies collect data to enhance your experience and personalize the content and advertising you see.
Visit our Privacy Policy to learn more. By continuing to use the site, you agree to this use of cookies and data.
  • In Switzerland
  • List of Countries
  • For 7 days
  • Water Temperature
  • Satellite Maps
  • Weather Map
  • Weather Widgets
  • user-avatar
    Login

    Hourly Weather Larinskiy

    Today, 17 June, Monday

    Time Temperature Precipitation Wind Pressure Humidity
    00:00 +14°C° 0 mm 0 mps 742 mmHg 90%
    01:00 +13°C° 0 mm 0 mps 742 mmHg 90%
    02:00 +13°C° 0 mm 0 mps 742 mmHg 91%
    03:00 +14°C° 0 mm 0 mps 742 mmHg 89%
    04:00 +15°C° 0 mm 0 mps 742 mmHg 88%
    05:00 +15°C° 0 mm 0 mps 742 mmHg 87%
    06:00 +19°C° 0 mm 1 mps 742 mmHg 83%
    07:00 +20°C° 0 mm 1 mps 743 mmHg 79%
    08:00 +21°C° 0 mm 1 mps 743 mmHg 74%
    09:00 +21°C° 0.1 mm 2 mps 743 mmHg 70%
    10:00 +23°C° 0.1 mm 2 mps 743 mmHg 65%
    11:00 +24°C° 0.1 mm 2 mps 743 mmHg 60%
    12:00 +25°C° 0 mm 2 mps 743 mmHg 60%
    13:00 +25°C° 0 mm 2 mps 742 mmHg 59%
    14:00 +25°C° 0 mm 2 mps 742 mmHg 59%
    15:00 +25°C° 0 mm 2 mps 742 mmHg 62%
    16:00 +25°C° 0 mm 2 mps 742 mmHg 65%
    17:00 +25°C° 0 mm 2 mps 741 mmHg 68%
    18:00 +23°C° 0 mm 1 mps 741 mmHg 73%
    19:00 +21°C° 0 mm 1 mps 741 mmHg 79%
    20:00 +20°C° 0 mm 1 mps 741 mmHg 84%
    21:00 +19°C° 0 mm 1 mps 741 mmHg 86%
    22:00 +18°C° 0 mm 2 mps 741 mmHg 88%
    23:00 +17°C° 0 mm 2 mps 741 mmHg 90%

    Tomorrow, 18 June, Tuesday

    Time Temperature Precipitation Wind Pressure Humidity
    00:00 +17°C° 0.1 mm 2 mps 741 mmHg 91%
    01:00 +17°C° 0.1 mm 3 mps 741 mmHg 92%
    02:00 +17°C° 0.1 mm 3 mps 740 mmHg 94%
    03:00 +17°C° 1 mm 3 mps 740 mmHg 94%
    04:00 +17°C° 1 mm 4 mps 740 mmHg 94%
    05:00 +18°C° 1 mm 4 mps 740 mmHg 94%
    06:00 +18°C° 0.2 mm 4 mps 740 mmHg 94%
    07:00 +19°C° 0.2 mm 4 mps 740 mmHg 93%
    08:00 +20°C° 0.2 mm 4 mps 740 mmHg 93%
    09:00 +20°C° 0 mm 4 mps 740 mmHg 92%
    10:00 +20°C° 0 mm 4 mps 740 mmHg 90%
    11:00 +20°C° 0 mm 4 mps 741 mmHg 89%
    12:00 +21°C° 0 mm 4 mps 740 mmHg 86%
    13:00 +22°C° 0 mm 4 mps 740 mmHg 82%
    14:00 +22°C° 0 mm 4 mps 740 mmHg 78%
    15:00 +24°C° 0.1 mm 3 mps 740 mmHg 77%
    16:00 +24°C° 0.1 mm 3 mps 741 mmHg 75%
    17:00 +24°C° 0.1 mm 3 mps 741 mmHg 74%
    18:00 +22°C° 0 mm 3 mps 741 mmHg 78%
    19:00 +21°C° 0 mm 2 mps 741 mmHg 81%
    20:00 +19°C° 0 mm 2 mps 741 mmHg 85%
    21:00 +18°C° 0 mm 2 mps 741 mmHg 85%
    22:00 +17°C° 0 mm 2 mps 742 mmHg 86%
    23:00 +16°C° 0 mm 2 mps 742 mmHg 87%

    Day after tomorrow, 19 June, Wednesday

    Time Temperature Precipitation Wind Pressure Humidity
    00:00 +16°C° 0 mm 2 mps 742 mmHg 88%
    01:00 +15°C° 0 mm 2 mps 742 mmHg 89%
    02:00 +15°C° 0 mm 2 mps 742 mmHg 90%
    03:00 +15°C° 0 mm 2 mps 742 mmHg 88%
    04:00 +15°C° 0 mm 2 mps 743 mmHg 86%
    05:00 +15°C° 0 mm 2 mps 743 mmHg 84%
    06:00 +17°C° 0 mm 3 mps 743 mmHg 79%
    07:00 +19°C° 0 mm 3 mps 743 mmHg 74%
    08:00 +21°C° 0 mm 3 mps 744 mmHg 70%
    09:00 +22°C° 0 mm 3 mps 744 mmHg 65%
    10:00 +24°C° 0 mm 3 mps 744 mmHg 60%
    11:00 +25°C° 0 mm 3 mps 744 mmHg 55%
    12:00 +26°C° 0 mm 3 mps 744 mmHg 55%
    13:00 +26°C° 0 mm 3 mps 744 mmHg 55%
    14:00 +26°C° 0 mm 2 mps 744 mmHg 54%
    15:00 +26°C° 0 mm 2 mps 744 mmHg 57%
    16:00 +26°C° 0 mm 2 mps 744 mmHg 61%
    17:00 +26°C° 0 mm 2 mps 744 mmHg 64%
    18:00 +24°C° 0 mm 1 mps 743 mmHg 68%
    19:00 +22°C° 0 mm 1 mps 743 mmHg 71%
    20:00 +20°C° 0 mm 1 mps 743 mmHg 75%
    21:00 +19°C° 0 mm 1 mps 744 mmHg 76%
    22:00 +18°C° 0 mm 1 mps 744 mmHg 77%
    23:00 +16°C° 0 mm 1 mps 744 mmHg 78%

    20 June, Thursday

    Time Temperature Precipitation Wind Pressure Humidity
    00:00 +16°C° 0 mm 1 mps 744 mmHg 79%
    01:00 +15°C° 0 mm 1 mps 744 mmHg 80%
    02:00 +15°C° 0 mm 1 mps 744 mmHg 80%
    03:00 +16°C° 0 mm 1 mps 745 mmHg 80%
    04:00 +16°C° 0 mm 1 mps 745 mmHg 79%
    05:00 +18°C° 0 mm 1 mps 745 mmHg 78%
    06:00 +20°C° 0 mm 1 mps 745 mmHg 74%
    07:00 +21°C° 0 mm 1 mps 745 mmHg 69%
    08:00 +23°C° 0 mm 1 mps 745 mmHg 65%
    09:00 +24°C° 0 mm 1 mps 745 mmHg 61%
    10:00 +26°C° 0 mm 1 mps 745 mmHg 56%
    11:00 +27°C° 0 mm 1 mps 745 mmHg 52%
    12:00 +27°C° 0 mm 1 mps 745 mmHg 50%
    13:00 +28°C° 0 mm 1 mps 745 mmHg 48%
    14:00 +28°C° 0 mm 1 mps 745 mmHg 45%
    15:00 +28°C° 0 mm 1 mps 745 mmHg 49%
    16:00 +26°C° 0 mm 0 mps 745 mmHg 53%
    17:00 +26°C° 0 mm 0 mps 745 mmHg 57%
    18:00 +23°C° 0 mm 0 mps 745 mmHg 61%
    19:00 +21°C° 0 mm 0 mps 745 mmHg 65%
    20:00 +19°C° 0 mm 0 mps 745 mmHg 69%
    21:00 +20°C° 0 mm 1 mps 745 mmHg 72%
    22:00 +19°C° 0 mm 1 mps 745 mmHg 74%
    23:00 +19°C° 0 mm 1 mps 745 mmHg 77%

    21 June, Friday

    Time Temperature Precipitation Wind Pressure Humidity
    00:00 +18°C° 0 mm 1 mps 745 mmHg 78%
    01:00 +18°C° 0 mm 1 mps 745 mmHg 80%
    02:00 +16°C° 0 mm 1 mps 745 mmHg 81%
    03:00 +18°C° 0 mm 1 mps 746 mmHg 81%
    04:00 +19°C° 0 mm 1 mps 746 mmHg 82%
    05:00 +19°C° 0 mm 1 mps 746 mmHg 82%
    06:00 +21°C° 0 mm 1 mps 746 mmHg 77%
    07:00 +22°C° 0 mm 1 mps 746 mmHg 72%
    08:00 +24°C° 0 mm 1 mps 746 mmHg 67%
    09:00 +25°C° 0 mm 1 mps 746 mmHg 63%
    10:00 +26°C° 0 mm 2 mps 746 mmHg 59%
    11:00 +27°C° 0 mm 2 mps 746 mmHg 54%
    12:00 +27°C° 0 mm 2 mps 746 mmHg 54%
    13:00 +27°C° 0 mm 2 mps 746 mmHg 54%
    14:00 +28°C° 0 mm 2 mps 745 mmHg 54%
    15:00 +27°C° 0 mm 2 mps 745 mmHg 57%
    16:00 +27°C° 0 mm 2 mps 745 mmHg 60%
    17:00 +27°C° 0 mm 2 mps 745 mmHg 63%
    18:00 +25°C° 0 mm 2 mps 745 mmHg 67%
    19:00 +23°C° 0 mm 1 mps 745 mmHg 71%
    20:00 +22°C° 0 mm 1 mps 745 mmHg 75%
    21:00 +21°C° 0 mm 1 mps 745 mmHg 77%
    22:00 +19°C° 0 mm 2 mps 745 mmHg 78%
    23:00 +18°C° 0 mm 2 mps 745 mmHg 80%

    22 June, Saturday

    Time Temperature Precipitation Wind Pressure Humidity
    00:00 +18°C° 0 mm 2 mps 745 mmHg 82%
    01:00 +18°C° 0 mm 2 mps 745 mmHg 84%
    02:00 +18°C° 0 mm 1 mps 745 mmHg 86%
    03:00 +19°C° 0 mm 1 mps 745 mmHg 86%
    04:00 +19°C° 0 mm 1 mps 746 mmHg 85%
    05:00 +20°C° 0 mm 1 mps 746 mmHg 85%
    06:00 +22°C° 0 mm 1 mps 746 mmHg 81%
    07:00 +23°C° 0 mm 2 mps 746 mmHg 76%
    08:00 +25°C° 0 mm 2 mps 746 mmHg 72%
    09:00 +26°C° 0 mm 2 mps 746 mmHg 67%
    10:00 +27°C° 0 mm 2 mps 746 mmHg 62%
    11:00 +28°C° 0 mm 3 mps 746 mmHg 57%
    12:00 +28°C° 0 mm 3 mps 745 mmHg 57%
    13:00 +28°C° 0 mm 3 mps 745 mmHg 58%
    14:00 +28°C° 0 mm 3 mps 745 mmHg 58%
    15:00 +28°C° 0 mm 3 mps 745 mmHg 61%
    16:00 +28°C° 0 mm 3 mps 745 mmHg 65%
    17:00 +27°C° 0 mm 2 mps 744 mmHg 68%
    18:00 +26°C° 0 mm 2 mps 744 mmHg 71%
    19:00 +24°C° 0 mm 2 mps 745 mmHg 75%
    20:00 +21°C° 0 mm 2 mps 745 mmHg 79%
    21:00 +21°C° 0 mm 2 mps 745 mmHg 81%
    22:00 +20°C° 0 mm 2 mps 745 mmHg 83%
    23:00 +19°C° 0 mm 2 mps 745 mmHg 85%
    Show more